Wind_Speed
6 5 5 5 5 4 5 4 4 4 5 7 7 8 8 8 9 9 9 10 10 10 11 11 10 10 10 11 12 12 12 12 12 12 13 13 13 14 15 16 16 16 16
6 6 5 5 5 5 5 5 3 2 4 6 7 8 8 8 9 9 10 10 11 11 11 11 11 11 11 11 11 12 11 11 12 12 13 13 13 14 15 16 16 16 16
5 6 5 5 6 6 5 4 3 2 4 6 7 8 9 9 10 11 11 11 12 12 12 12 12 12 12 12 12 12 12 11 12 12 12 13 13 14 16 16 16 16 16
6 6 6 6 6 7 6 4 4 4 4 6 7 9 10 11 11 12 12 12 12 12 12 12 12 12 13 13 13 13 13 13 12 13 13 13 14 14 15 15 16 17 16
7 7 6 6 7 7 6 6 5 5 6 6 7 8 9 10 11 12 12 13 13 13 13 13 13 12 13 13 14 14 14 13 13 13 14 14 14 14 14 15 15 15 16
7 7 7 7 7 8 7 7 7 6 7 6 7 8 9 9 10 11 11 12 13 13 13 13 13 13 13 14 14 14 14 14 13 13 14 14 14 14 14 14 15 15 16
7 7 8 8 8 8 8 7 7 7 7 7 7 8 8 9 10 10 11 11 12 12 12 13 14 14 14 14 14 14 14 14 14 14 14 14 14 14 14 14 15 16 16
7 7 8 9 9 9 8 7 7 7 7 8 8 9 9 10 10 11 11 11 12 12 12 13 13 14 14 13 13 14 14 14 15 14 14 14 14 14 14 15 15 16 17
7 8 8 9 10 9 9 8 8 8 8 8 8 9 9 10 11 11 11 11 11 12 12 13 13 14 14 14 14 14 15 15 14 14 15 15 14 14 14 15 15 16 17
8 9 9 10 10 9 9 9 9 9 9 9 10 10 10 11 11 12 12 12 12 12 13 13 14 15 16 16 15 16 16 16 15 15 15 15 15 15 14 14 15 16 16
9 9 10 10 11 10 10 10 10 10 10 10 10 11 11 12 12 12 12 13 13 13 14 14 15 15 15 16 16 16 16 16 16 16 15 15 15 15 15 15 15 15 16
10 10 10 11 11 11 11 11 11 11 11 11 11 12 12 12 13 13 13 13 13 13 14 14 15 15 14 15 16 16 16 16 16 16 16 16 16 16 16 16 16 16 17
11 11 11 12 12 12 12 12 12 12 12 12 12 12 12 13 13 13 13 14 14 14 14 15 15 15 15 15 15 15 16 16 17 17 18 17 17 17 17 17 17 17 18
11 11 12 13 13 13 13 12 13 13 13 13 14 13 13 13 13 14 14 14 14 15 15 15 15 15 15 15 16 16 16 16 18 18 18 18 18 18 19 19 18 18 19
13 13 13 14 13 13 13 13 13 14 14 14 14 14 14 13 13 13 14 14 15 15 15 15 15 15 15 15 15 16 17 17 18 19 20 21 20 19 19 20 21 20 20
13 14 14 14 13 13 14 14 14 14 15 15 14 14 14 14 14 14 14 14 15 15 16 17 16 16 16 15 16 17 17 18 18 19 19 20 20 21 21 21 21 21 22
13 14 14 14 14 15 14 14 15 15 15 15 15 15 14 14 14 15 15 15 16 16 17 17 17 17 16 17 17 18 18 19 19 19 19 20 21 21 21 22 22 22 22
13 13 13 14 14 14 14 15 15 15 15 16 16 16 15 15 15 15 15 16 16 17 17 18 18 18 18 18 18 19 19 20 20 20 20 20 21 21 21 22 23 23 24
14 14 14 15 15 15 15 15 15 16 17 17 17 17 17 16 15 15 15 16 17 18 18 18 19 19 19 19 19 20 20 20 21 21 21 21 21 22 22 23 23 24 24
15 15 15 15 15 15 15 15 15 16 17 17 17 17 17 16 15 15 16 16 17 18 18 18 19 19 19 20 20 20 20 21 21 21 21 21 22 22 22 23 23 24 24
16 16 16 16 16 16 16 16 15 16 16 16 16 17 17 17 17 17 17 17 18 18 18 18 18 19 19 20 20 20 21 21 21 21 21 22 22 22 23 23 23 24 24
17 16 17 17 17 17 17 17 17 16 16 16 16 17 17 18 18 19 19 19 18 18 18 18 19 21 21 21 21 21 21 21 21 22 22 22 22 22 23 23 23 24 24
18 17 18 18 17 17 17 18 18 17 17 17 17 17 18 18 19 19 19 20 20 19 19 19 20 20 20 21 21 21 22 22 22 23 22 22 22 22 22 23 23 24 24
19 19 18 18 18 18 18 18 18 18 18 18 18 18 18 18 18 18 18 18 19 20 20 20 20 21 21 20 20 21 22 22 22 22 22 22 23 23 23 23 24 24 24
20 19 19 19 19 19 19 18 19 19 19 19 19 19 19 19 19 19 19 19 19 19 20 21 21 21 21 20 20 21 21 22 22 22 22 22 23 24 24 24 24 25 25
21 21 21 20 20 20 19 19 19 20 20 20 20 20 19 19 19 19 19 19 19 20 21 21 21 21 21 21 21 21 22 23 23 23 23 24 24 25 25 24 25 25 26
Wind_Direction
346 349 350 349 344 329 318 314 294 270 246 231 223 226 226 228 230 234 237 240 242 244 244 245 249 254 255 257 254 252 255 256 254 258 262 264 265 265 264 261 262 261 261
346 346 350 351 349 339 327 319 309 274 232 229 230 232 234 237 240 240 239 241 244 247 246 247 249 254 256 257 256 253 255 257 258 261 261 265 266 267 268 264 262 261 258
344 341 340 343 346 340 330 313 298 268 237 235 237 238 242 245 247 248 245 244 246 249 248 250 252 254 256 256 260 261 260 261 261 266 266 268 269 271 269 266 265 260 258
337 337 335 338 341 339 330 315 290 273 261 252 246 247 248 248 250 252 248 247 248 249 249 250 253 256 255 257 262 267 267 265 265 269 273 271 271 270 269 269 267 260 258
336 333 333 334 335 335 329 322 301 278 268 263 254 248 250 253 253 253 250 251 251 252 254 256 257 256 257 260 263 265 265 268 266 267 271 271 270 272 272 270 267 261 258
330 329 333 332 331 327 324 321 315 299 282 275 266 258 254 254 255 255 255 255 253 254 256 257 257 257 259 261 264 265 266 267 269 269 272 273 272 274 274 271 269 264 260
323 327 330 330 328 328 326 325 320 313 298 289 282 271 262 258 260 260 261 260 256 255 255 253 256 259 259 261 263 265 266 269 272 272 273 274 274 273 274 273 270 268 264
318 323 326 327 325 324 325 326 323 315 306 298 291 284 271 265 265 265 265 262 258 257 258 259 260 260 261 265 267 266 266 269 270 272 273 272 271 273 273 272 271 268 265
312 317 319 322 322 322 320 317 318 313 307 301 298 293 284 276 269 269 269 265 260 259 262 264 262 263 265 267 267 266 266 268 270 273 274 273 272 273 275 274 274 273 269
308 311 313 314 316 315 313 310 307 308 306 300 295 293 289 284 274 270 268 267 262 261 261 260 262 265 266 268 270 268 268 268 269 272 272 274 275 275 278 278 278 276 272
307 310 309 310 311 309 307 306 303 302 304 302 297 292 287 282 276 275 273 269 264 262 261 262 264 267 269 269 269 271 268 266 268 271 274 275 276 278 279 281 280 277 275
300 305 307 309 309 305 303 303 302 302 302 302 297 292 288 285 278 276 276 275 271 266 265 266 268 270 272 271 270 272 271 268 270 273 274 275 276 279 282 284 284 281 280
295 299 304 307 308 303 301 301 301 301 301 300 299 295 289 286 280 275 273 273 271 268 269 270 272 273 272 273 272 272 274 271 270 273 275 274 276 279 281 284 284 282 280
294 297 300 301 304 302 299 298 300 300 299 298 297 295 289 286 281 275 271 269 268 269 269 271 272 272 272 272 273 273 274 273 272 273 275 275 276 277 278 280 281 279 279
291 296 298 300 302 300 296 296 297 298 298 298 297 296 292 287 282 278 275 270 268 268 269 270 272 271 272 273 275 275 275 275 276 275 275 277 276 277 278 281 280 278 279
291 294 295 296 298 296 293 293 292 293 296 296 295 294 294 290 286 280 276 274 271 271 271 272 274 273 272 275 276 276 278 278 278 278 277 277 276 277 278 280 281 280 280
299 296 294 296 299 297 292 291 291 291 293 294 292 292 292 291 288 283 277 274 272 271 272 274 274 274 275 277 277 278 280 281 281 282 283 283 282 281 280 280 281 282 279
301 299 298 300 302 301 296 291 291 293 294 294 293 292 291 291 289 287 280 275 274 273 272 272 272 273 276 279 280 281 282 282 283 284 284 286 285 284 282 281 282 283 281
298 299 298 299 300 300 299 298 294 292 292 292 292 291 289 289 289 288 285 280 277 276 274 272 274 273 275 278 282 281 281 280 281 283 285 286 286 286 284 283 282 283 283
295 295 296 298 298 298 298 299 299 296 292 291 291 290 290 290 288 288 286 284 282 279 277 275 275 276 277 279 280 281 282 283 282 284 286 286 287 287 286 286 285 284 284
295 296 298 298 296 296 296 295 297 299 297 295 293 291 291 289 287 286 286 285 284 283 280 279 279 279 281 282 281 281 282 283 285 285 286 287 289 289 287 286 286 286 286
295 298 299 299 297 295 295 295 295 297 298 299 297 294 291 289 287 285 284 284 286 285 284 284 281 280 280 283 281 282 282 283 285 285 286 288 288 288 287 287 287 287 287
293 296 297 297 298 296 294 295 296 296 297 298 298 296 294 292 291 288 286 285 284 284 282 284 285 284 283 284 284 283 283 284 285 285 285 287 288 288 287 288 288 288 287
288 291 293 294 296 296 295 295 296 296 297 297 298 297 295 294 292 291 290 287 284 284 284 284 284 282 281 282 282 283 285 285 285 284 286 287 287 288 287 288 288 288 286
283 286 289 291 293 295 294 293 295 294 295 296 296 297 296 295 292 290 289 289 288 287 287 284 283 281 279 279 280 284 285 285 286 287 287 288 287 288 289 289 288 288 288
280 282 286 288 290 292 293 292 292 293 293 293 294 295 295 294 293 290 289 289 288 288 288 285 283 281 280 279 280 284 286 286 285 285 286 287 288 289 290 290 289 290 289
Height
5874 5872 5871 5870 5868 5867 5865 5863 5861 5860 5860 5862 5863 5865 5866 5867 5868 5869 5869 5870 5870 5870 5871 5871 5871 5871 5871 5871 5871 5871 5871 5872 5872 5872 5872 5872 5872 5871 5871 5871 5871 5871 5871
5873 5872 5870 5869 5867 5866 5864 5862 5861 5859 5860 5861 5862 5864 5865 5865 5866 5866 5867 5868 5868 5868 5868 5868 5869 5869 5869 5869 5869 5869 5869 5869 5868 5868 5869 5869 5868 5868 5867 5867 5867 5867 5867
5872 5871 5870 5868 5867 5865 5864 5862 5860 5860 5860 5861 5861 5862 5863 5863 5864 5864 5865 5865 5866 5866 5866 5866 5867 5867 5867 5867 5867 5866 5866 5866 5865 5865 5865 5865 5865 5864 5864 5863 5862 5862 5863
5872 5871 5869 5868 5866 5864 5863 5861 5861 5860 5860 5860 5860 5861 5861 5861 5862 5862 5863 5863 5863 5863 5864 5864 5864 5864 5864 5864 5864 5864 5864 5863 5863 5863 5863 5862 5861 5861 5860 5859 5858 5857 5858
5871 5870 5869 5867 5865 5864 5862 5861 5860 5859 5859 5859 5859 5859 5859 5859 5859 5860 5860 5860 5861 5861 5861 5861 5861 5862 5862 5862 5862 5861 5861 5860 5860 5860 5859 5859 5858 5857 5856 5855 5854 5854 5854
5870 5869 5868 5866 5865 5863 5862 5860 5859 5858 5858 5857 5857 5857 5857 5857 5857 5857 5857 5858 5858 5858 5858 5858 5859 5859 5859 5859 5859 5858 5858 5857 5857 5856 5856 5855 5855 5854 5853 5853 5852 5851 5851
5870 5868 5867 5866 5864 5862 5861 5859 5858 5857 5857 5856 5856 5855 5855 5855 5855 5855 5855 5855 5855 5855 5855 5855 5856 5856 5856 5855 5855 5855 5855 5854 5853 5853 5853 5852 5851 5851 5850 5849 5849 5848 5848
5868 5867 5866 5865 5863 5861 5860 5859 5857 5856 5855 5855 5854 5854 5853 5853 5853 5852 5852 5852 5852 5852 5852 5853 5853 5853 5852 5852 5852 5852 5852 5851 5850 5850 5849 5849 5848 5848 5847 5846 5845 5845 5845
5867 5866 5865 5863 5862 5860 5858 5857 5856 5855 5854 5853 5852 5852 5851 5851 5850 5850 5849 5849 5849 5850 5850 5850 5850 5850 5849 5849 5849 5848 5848 5848 5847 5846 5846 5845 5845 5844 5843 5842 5842 5841 5841
5866 5864 5863 5862 5860 5858 5857 5856 5854 5853 5852 5851 5850 5849 5849 5848 5848 5847 5847 5847 5847 5847 5847 5847 5846 5846 5846 5845 5845 5845 5844 5844 5844 5843 5842 5841 5841 5840 5839 5839 5838 5837 5837
5864 5863 5861 5859 5858 5856 5855 5854 5852 5851 5850 5849 5848 5847 5846 5845 5844 5844 5844 5844 5843 5843 5843 5843 5843 5842 5842 5842 5841 5841 5840 5840 5840 5839 5838 5837 5837 5836 5835 5835 5834 5833 5832
5862 5861 5859 5857 5855 5854 5852 5851 5850 5849 5848 5847 5846 5845 5843 5842 5842 5841 5841 5840 5840 5840 5840 5840 5839 5839 5838 5838 5837 5837 5837 5836 5836 5835 5834 5833 5833 5832 5831 5831 5830 5829 5828
5860 5858 5856 5855 5853 5851 5850 5848 5847 5846 5845 5844 5843 5842 5840 5839 5839 5838 5838 5837 5837 5837 5837 5836 5836 5835 5835 5834 5834 5833 5833 5832 5831 5831 5830 5829 5829 5828 5827 5826 5825 5824 5823
5857 5855 5854 5852 5850 5848 5847 5846 5845 5843 5842 5841 5840 5838 5837 5836 5835 5835 5834 5834 5833 5833 5833 5833 5832 5832 5831 5830 5830 5829 5829 5828 5827 5826 5825 5825 5824 5823 5823 5822 5821 5820 5819
5854 5852 5851 5849 5847 5845 5844 5843 5842 5840 5839 5838 5836 5835 5834 5833 5832 5831 5830 5830 5830 5829 5829 5829 5828 5828 5827 5827 5826 5825 5824 5823 5822 5822 5821 5820 5819 5818 5818 5817 5816 5815 5814
5850 5849 5847 5845 5843 5842 5840 5839 5838 5837 5835 5834 5833 5832 5831 5829 5828 5827 5827 5826 5825 5825 5825 5824 5824 5824 5823 5823 5822 5821 5820 5819 5818 5817 5816 5815 5814 5813 5812 5811 5810 5809 5808
5846 5844 5843 5841 5840 5838 5836 5835 5834 5833 5831 5830 5829 5828 5827 5826 5824 5823 5823 5822 5821 5821 5821 5820 5820 5819 5819 5819 5818 5817 5816 5815 5813 5812 5811 5810 5809 5808 5807 5805 5804 5803 5802
5843 5841 5839 5838 5836 5834 5832 5830 5829 5828 5827 5826 5825 5824 5823 5821 5820 5819 5818 5818 5817 5817 5816 5816 5815 5815 5814 5814 5813 5812 5811 5810 5809 5807 5806 5805 5803 5802 5800 5799 5798 5796 5795
5839 5838 5836 5834 5832 5830 5828 5826 5824 5823 5822 5821 5820 5819 5818 5817 5816 5815 5814 5813 5813 5812 5811 5811 5811 5810 5810 5809 5808 5807 5806 5804 5803 5802 5800 5799 5797 5796 5794 5792 5791 5790 5788
5836 5834 5832 5830 5828 5826 5824 5822 5821 5819 5818 5817 5816 5815 5814 5813 5812 5811 5810 5809 5808 5807 5807 5806 5806 5805 5804 5804 5803 5802 5800 5799 5798 5796 5795 5793 5791 5789 5788 5786 5784 5783 5781
5832 5830 5828 5826 5824 5822 5820 5819 5817 5815 5814 5813 5811 5810 5809 5808 5807 5806 5806 5805 5804 5803 5802 5801 5801 5800 5799 5798 5797 5796 5795 5793 5792 5790 5789 5787 5785 5783 5781 5780 5778 5776 5774
5828 5826 5824 5822 5820 5818 5816 5815 5813 5811 5810 5809 5807 5806 5805 5804 5803 5802 5801 5800 5799 5798 5797 5796 5795 5794 5793 5792 5791 5790 5789 5788 5786 5785 5783 5781 5779 5777 5775 5773 5771 5770 5768
5824 5822 5820 5818 5816 5814 5813 5811 5809 5807 5806 5805 5803 5801 5800 5799 5798 5796 5795 5794 5794 5793 5792 5791 5789 5788 5787 5786 5785 5784 5782 5781 5780 5778 5776 5774 5772 5770 5768 5766 5765 5763 5761
5819 5817 5816 5814 5812 5810 5808 5807 5805 5803 5801 5800 5799 5797 5795 5794 5792 5791 5790 5789 5788 5787 5786 5785 5784 5782 5781 5780 5779 5777 5776 5774 5773 5771 5770 5768 5766 5764 5762 5760 5758 5756 5755
5813 5812 5811 5809 5807 5805 5804 5802 5800 5799 5797 5795 5794 5792 5790 5789 5787 5785 5784 5783 5782 5780 5779 5778 5777 5776 5774 5773 5772 5771 5769 5768 5767 5765 5763 5761 5759 5757 5755 5753 5751 5749 5748
5808 5807 5805 5803 5802 5800 5799 5797 5795 5793 5792 5790 5789 5787 5785 5784 5782 5780 5779 5777 5776 5774 5773 5771 5770 5769 5768 5767 5766 5764 5763 5762 5760 5759 5757 5755 5753 5751 5749 5746 5744 5742 5740